COSMOS 1892

Satellite information

Favourite Embed

Satellite Type and Status

PAYLOADIN ORBIT

Key statistics

Satellite COSMOS 1892 at a glance.

Uptime

13829

Days in orbit

Revolutions

≈ 15.7

Per day

Orbit

LEO

Low Earth Orbit

Inclination

82.5

Latest

Satellite identification and parameters

Extended collection of information and parameters for COSMOS 1892.

Object identification

Identified? True

Debris? False

Object name: COSMOS 1892

International designator: 1987-088A

Object number (NORAD): 18421

Object ID (CCSDS): 18421

Country: COMMONWEALTH OF INDEPENDENT STATES (CIS)

Current information (Y/N): Y

RCS size: LARGE

Orbital parameters

Period: 91.545 minutes

Inclination: 82.48 deg

SMA: 6728.451 km

Apoapsis: 354.253 km

Periapsis: 346.379 km

RAAN: 159.7759 deg

Eccentricy: 0.0005851

Argument of periapsis: 147.5726 deg

Mean anomaly: 212.5898 deg

Mean motion: 15.73004999 rev/day

Mean motion (dot): 0.00102418 rev/day2

B* drag term: 0.00074445822 1/REarth

Two-line elements (TLE)

Creation date: Aug. 30, 2025, 3:38 a.m.

Reference frame: TEME

Reference center: EARTH

Epoch: Aug. 29, 2025, 7:20 p.m. UTC

TLE line 0: 0 COSMOS 1892

TLE line 1: 1 18421U 87088A 25241.80577390 .00102418 00000-0 74446-3 0 9994

TLE line 2: 2 18421 82.4800 159.7759 0005851 147.5726 212.5898 15.73004999 74658

Live tracking on map

Real-time ground track for satellite COSMOS 1892.

In-orbit conjunctions

A list of the most updated potential collisions computed for object COSMOS 1892.

Target Orbit TCA Probability of collision Miss distance Type
SL-19 R/B SSO 2024-10-04 17:35:51 0.000263868 279.0 (m) ROCKET BODY

Associated space launch

Tselina-D satellites provided detailed observation of radio sources detected by the smaller Tselina-O satellites as part of the Tselina ELINT system.

COSMOS 1892 was lifted into orbit during the mission ‘Tsiklon-3 | Tselina-D 62’, on board a Tsiklon-3 space rocket.

The launch took place on Oct. 20, 1987, 9:09 a.m. from 32/1.

For more information about the launch, click the button.

Launch to space Tsiklon-3 | Tselina-D 62
Tsiklon-3 | Tselina-D 62

Agency: N/A

Status: Launch Successful

Launch date: Oct. 20, 1987, 9:09 a.m. UTC

Rocket: Tsiklon-3

Launch pad: 32/1

Location: Plesetsk Cosmodrome, Russian Federation

...

Latest news about this satellite

There are no fresh news available about this satellite. Check back as we update our databases every day.


Newsletter sign-up

Weekly statistics, charts and insights to help you stay on top of the space industry.